Weather History for Palmer, AK

Change the Weather History Date:

Friday, August 9, 2013

  Actual Average Record
Temperature  
Mean Temperature 58 °F -  
Max Temperature 66 °F 65 °F 81 °F (2003)
Min Temperature 51 °F 48 °F 37 °F (1960)
Degree Days  
Heating Degree Days 8    
Growing Degree Days 8 (Base 50)    
Moisture  
Dew Point 44 °F    
Average Humidity 63    
Maximum Humidity 89    
Minimum Humidity 42    
Precipitation  
Precipitation 0.05 in - - ()
Sea Level Pressure  
Sea Level Pressure 29.76 in    
Wind  
Wind Speed 12 mph (ESE)    
Max Wind Speed 30 mph    
Max Gust Speed 41 mph    
Visibility 10 miles    
Events Rain    
Averages and records for this station are not official NWS values.
T = Trace of Precipitation, MM = Missing Value Source: NWS Daily Summary

Daily Weather History Graph

Daily Weather History Graph

Search for Another Location

Airport:

Trip Planner

Search our weather history database for the weather conditions in past years. The results will help you decide how hot, cold, wet, or windy it might be!

Date:

Astronomy

Aug. 09, 2013 Rise Set
Actual Time 5:47 AM AKDT 10:13 PM AKDT
Civil Twilight 4:48 AM AKDT 11:12 PM AKDT
Nautical Twilight 2:53 AM AKDT 1:00 AM AKDT
Astronomical Twilight Sun does not rise Sun does not rise
Moon 9:57 AM AKDT (8/9) 10:07 PM AKDT (8/9)
Length of Visible Light 18h 24m
Length of Day
16h 25m
Waxing Crescent, 8% of the Moon is Illuminated
Aug 9
Waxing Crescent
Aug 14
First Quarter
Aug 20
Full
Aug 28
Last Quarter
Sep 5
New

Hourly Weather History & Observations

Time (AKDT) Temp. Dew Point Humidity Pressure Visibility Wind Dir Wind Speed Gust Speed Precip Events Conditions
12:53 AM 57.0 °F 41.0 °F 55% 29.83 in 10.0 mi SSE 9.2 mph - N/A   Overcast
1:53 AM 57.9 °F 39.0 °F 49% 29.81 in 10.0 mi SSE 10.4 mph 21.9 mph N/A   Overcast
2:53 AM 57.0 °F 39.0 °F 51% 29.81 in 10.0 mi South 11.5 mph - N/A   Overcast
3:53 AM 55.9 °F 43.0 °F 62% 29.82 in 10.0 mi SE 3.5 mph - 0.00 in Rain Light Rain
4:53 AM 51.1 °F 48.0 °F 89% 29.81 in 10.0 mi NNE 9.2 mph - 0.03 in   Overcast
5:53 AM 52.0 °F 46.0 °F 80% 29.78 in 10.0 mi Calm Calm - 0.00 in   Overcast
6:53 AM 51.1 °F 46.9 °F 86% 29.76 in 10.0 mi North 8.1 mph - N/A   Overcast
7:53 AM 52.0 °F 46.9 °F 83% 29.75 in 10.0 mi North 6.9 mph - N/A   Overcast
8:53 AM 53.1 °F 48.0 °F 83% 29.75 in 10.0 mi North 8.1 mph - 0.00 in   Overcast
9:53 AM 54.0 °F 48.0 °F 80% 29.74 in 10.0 mi North 8.1 mph 18.4 mph N/A   Overcast
10:53 AM 55.9 °F 48.9 °F 77% 29.74 in 10.0 mi North 8.1 mph - N/A   Scattered Clouds
11:53 AM 63.0 °F 41.0 °F 45% 29.73 in 10.0 mi SE 17.3 mph 27.6 mph N/A   Overcast
12:53 PM 64.0 °F 41.0 °F 43% 29.72 in 10.0 mi SE 25.3 mph 33.4 mph N/A   Widespread Dust
1:04 PM 64.4 °F 41.0 °F 42% 29.71 in 3.0 mi ESE 21.9 mph 35.7 mph N/A   Widespread Dust
1:06 PM 64.4 °F 41.0 °F 42% 29.71 in 10.0 mi SE 25.3 mph 33.4 mph N/A   Widespread Dust
1:53 PM 64.0 °F 41.0 °F 43% 29.72 in 10.0 mi SE 29.9 mph 38.0 mph N/A   Widespread Dust
2:53 PM 64.9 °F 41.0 °F 42% 29.73 in 10.0 mi SE 27.6 mph 41.4 mph N/A   Widespread Dust
3:53 PM 64.0 °F 41.0 °F 43% 29.73 in 10.0 mi SE 24.2 mph 39.1 mph N/A   Widespread Dust
4:53 PM 62.1 °F 42.1 °F 48% 29.73 in 10.0 mi SE 21.9 mph 38.0 mph 0.00 in   Widespread Dust
5:53 PM 57.0 °F 45.0 °F 64% 29.75 in 10.0 mi SSE 13.8 mph 20.7 mph 0.00 in Rain Light Rain
6:53 PM 54.0 °F 46.0 °F 75% 29.77 in 10.0 mi SSE 12.7 mph - 0.02 in   Overcast
7:53 PM 54.0 °F 46.9 °F 77% 29.77 in 10.0 mi ESE 10.4 mph - 0.00 in   Overcast
8:53 PM 54.0 °F 46.0 °F 75% 29.76 in 10.0 mi ESE 11.5 mph - 0.00 in   Overcast
9:53 PM 54.0 °F 46.9 °F 77% 29.76 in 10.0 mi East 11.5 mph 20.7 mph N/A   Overcast
10:53 PM 55.0 °F 46.0 °F 72% 29.76 in 10.0 mi NE 4.6 mph - N/A   Overcast
11:53 PM 55.9 °F 44.1 °F 64% 29.77 in 10.0 mi East 16.1 mph 21.9 mph N/A   Mostly Cloudy